Meteo Giornale » Osservazioni meteo Svezia » Stockholm-Arlanda

ore: 15:50 - Osservazioni Meteo Stockholm-Arlanda
Lat. 59° 39' N Lon. 17° 57' E Alt. 38 metri s.l.m.

sereno Europe/Stockholm

15 °C

Sereno

Temp. 24 Ore

11 °C

16 °C

Sud-Ovest

18.5 Km/h

Dew point 8 °C

Umidità 62 %

Visibilità  10 Km

Il sole sorge alle ore 06:31

Il sole tramonta alle ore 18:49

Data e Ora Cielo e Fenomeni T °C DP °C Um. % Pres. hPa Vis. km Vento km/h
Oggi h: 15:50 sereno Sereno 15 8 62 1007 10 SO 18.5
Oggi h: 15:20 sereno Sereno 16 9 63 1007 10 SO 18.5
Oggi h: 14:50 sereno Sereno 16 9 63 1007 10 S/SO 14.8
Oggi h: 14:20 sereno Sereno 15 9 67 1007 10 SO 18.5
Oggi h: 13:50 sereno Sereno 16 9 63 1007 10 O/SO 18.5
Oggi h: 13:20 sereno Sereno 15 9 67 1007 10 O/SO 18.5
Oggi h: 12:50 sereno Sereno 15 9 67 1007 10 O/SO 20.3
Oggi h: 12:20 sereno Sereno 14 9 71 1007 10 O 24
Oggi h: 11:50 sereno Sereno 14 9 71 1007 10 O 24
Oggi h: 11:20 sereno Sereno 14 8 67 1007 10 O/SO 27.8
Oggi h: 10:50 sereno Sereno 14 9 71 1007 10 O/SO 25.9
Oggi h: 10:20 sereno Sereno 13 9 76 1007 10 O/SO 27.8
Oggi h: 09:50 sereno Sereno 13 9 76 1007 10 O 24
Oggi h: 09:20 sereno Sereno 12 9 81 1006 10 O/SO 22.2
Oggi h: 08:50 sereno Sereno 12 9 81 1006 10 O/SO 22.2
Oggi h: 08:20 sereno Sereno 11 9 87 1006 10 O/SO 27.8
Oggi h: 07:50 sereno Sereno 11 8 81 1006 10 O/SO 24
Oggi h: 07:20 sereno Sereno 11 8 81 1006 10 O/SO 24
Oggi h: 06:50 sereno Sereno 11 8 81 1006 10 O/SO 24
Oggi h: 06:20 sereno Sereno 11 8 81 1006 10 O/SO 24
Oggi h: 05:50 sereno Sereno 11 9 87 1006 10 O/SO 22.2
Oggi h: 05:20 sereno Sereno 11 9 87 1006 10 O/SO 24
Oggi h: 04:50 sereno Sereno 11 8 81 1006 10 O/SO 20.3
Oggi h: 04:20 sereno Sereno 11 8 81 1005 10 O/SO 22.2
Oggi h: 03:50 sereno Sereno 12 9 81 1006 10 O/SO 24
Oggi h: 03:20 sereno Sereno 11 9 87 1006 10 SO 24
Oggi h: 02:50 sereno Sereno 11 8 81 1005 10 O/SO 27.8
Oggi h: 02:20 sereno Sereno 12 8 76 1005 10 O/SO 27.8
Oggi h: 01:50 sereno Sereno 12 9 81 1005 10 O/SO 25.9
Oggi h: 01:20 sereno Sereno 12 9 81 1006 10 O/SO 24
Oggi h: 00:50 sereno Sereno 12 9 81 1006 10 O/SO 20.3
Oggi h: 00:20 sereno Sereno 12 9 81 1006 10 SO 22.2
Ieri h: 23:50 poco_nuvoloso Poco Nuvoloso 12 9 81 1006 10 O/SO 22.2
Ieri h: 23:20 sereno Sereno 12 9 81 1007 10 O/SO 24
Ieri h: 22:50 nuvoloso Nuvoloso 12 9 81 1007 10 O/SO 27.8
Ieri h: 22:20 nuvoloso Nuvoloso 12 9 81 1007 10 O/SO 37
Ieri h: 21:50 sereno Sereno 13 10 81 1007 10 O 25.9
Ieri h: 21:20 sereno Sereno 13 10 81 1007 10 O/SO 24
Ieri h: 20:50 sereno Sereno 14 10 76 1007 10 SO 27.8
Ieri h: 20:20 sereno Sereno 14 10 76 1007 10 O/SO 25.9
Ieri h: 19:50 sereno Sereno 15 10 72 1006 10 SO 29.6
Ieri h: 19:20 sereno Sereno 15 10 72 1006 10 SO 31.5
Ieri h: 18:50 sereno Sereno 15 10 72 1007 10 SO 27.8
Ieri h: 17:50 sereno Sereno 16 10 67 1007 10 SO 33.3
Ieri h: 17:20 sereno Sereno 16 10 67 1008 10 SO 29.6
Ieri h: 16:50 sereno Sereno 16 10 67 1008 10 SO 25.9